星链-35812(STARLINK-35812)

导读 | 豆包AI

STARLINK-35812是美国太空探索技术公司Starlink星链互联网卫星星座的一员,于2025年11月21日由美国发射升空。该卫星属于星链项目低轨卫星组网部署的一部分,旨在为全球提供高速低延迟互联网接入服务,进一步扩大星链星座的全球覆盖范围与服务能力。

基本信息
目录编号:
66574
目录名称:
STARLINK-35812
国际标识:
2025-268T
轨道中心:
EARTH
卫星名称:
星链-35812
卫星全名:
星链-35812(STARLINK-35812)
卫星状态:
在轨 (已飞行134 天)
发射日期:
2025-11-21 UTC
国别 :
美国 (US)
星等 :
--
轨道信息
数据来源 国际轨道数据
星历时间: 2026-04-03T21:51:20+0800
14小时前
查看轨道信息
半长轴: 6861.104km
偏心率: 0.0002411
轨道倾角: 42.996°
近地点辐角 105.750°
升交点赤经 206.715°
平近点角 254.361°
近地点: 481.312km
远地点: 484.622km
周期: 94.265分钟
每日圈数: 15.276076
详细信息
固有亮度:
5
最大亮度:
2.5
卫星平台:
Starlink V1.0
覆盖范围:
全球
运营商:
太空探索技术公司
运营商所在国:
美国
制造商(研发单位):
太空探索技术公司
制造商所在国:
美国
使用方式:
暂无
卫星简介
Starlink 计划是 SpaceX 推出的全球卫星互联网项目,通过发射低轨道卫星,为全球尤其是偏远地区提供高速、低延迟的互联网服务。自 2019 年起,Starlink 已部署数千颗卫星,旨在缩小全球数字鸿沟,推动互联网普及。该项目还为军事、航空等行业提供通信支持,带来广泛经济效益。
2D轨道图
3D轨道图
轨道高度分析图
轨道倾角分析图
轨道综合分析图
查看轨道综合分析图